Regional Weather Roundup
Issued by NWS

Home | Current Version | Previous Version | Graphics & Text | Print | Product List | Glossary On
Versions: 1 2 3 4 5 6 7 8 9 10 11 12 13 14 15 16 17 18 19 20 21 22 23 24 25 26 27 28 29 30 31 32 33 34 35 36 37 38 39 40 41 42 43 44 45 46 47 48 49 50
000
ASUS43 KOAX 011602
RWRNE

WEATHER ROUNDUP FOR NEBRASKA
NATIONAL WEATHER SERVICE OMAHA NE
1100 AM CDT SUN MAY 01 2016

NOTES: SATELLITE DATA IS BEING USED TO AUGMENT CLOUD COVER ABOVE
       12000 FEET.
       "FAIR" INDICATES FEW OR NO CLOUDS BELOW 12,000 FEET WITH NO
       SIGNIFICANT WEATHER AND/OR OBSTRUCTIONS TO VISIBILITY.

  * THESE STATIONS DO NOT REPORT WEATHER SUCH AS RAIN...SNOW OR FOG.

NEZ001>004-019>022-054>056-011700-
NEBRASKA PANHANDLE

CITY           SKY/WX    TMP DP  RH WIND       PRES   REMARKS
SCOTTSBLUFF    CLOUDY    46  28  49 N14       30.33R
ALLIANCE       SUNNY     37  31  78 N13       30.29R WCI  29
CHADRON        CLOUDY    50  31  48 NE17G24   30.32S
KIMBALL        CLOUDY    37  31  79 NW8       30.32S WCI  31
SIDNEY         CLOUDY    37  32  82 NW12      30.31R WCI  29
$$

NEZ057>060-069>072-079>082-011700-
SOUTHWEST NEBRASKA

CITY           SKY/WX    TMP DP  RH WIND       PRES   REMARKS
NORTH PLATTE   CLOUDY    43  36  76 N18       30.22R
IMPERIAL       CLOUDY    43  36  76 N22       30.26R
LEXINGTON      CLOUDY    45  40  81 N16G23    30.19R
MCCOOK         CLOUDY    44  38  79 NW13      30.23R
$$

NEZ005>010-023>029-035>040-094-011700-
NORTH CENTRAL NEBRASKA

CITY           SKY/WX    TMP DP  RH WIND       PRES   REMARKS
VALENTINE      SUNNY     48  32  53 N17G24    30.26R
AINSWORTH      CLOUDY    47  34  61 N21G30    30.23R
BROKEN BOW     CLOUDY    44  38  79 N18G24    30.19R
ORD            CLOUDY    44  40  85 N20       30.17R
$$

NEZ041-046>049-061>064-073>077-083>087-011700-
SOUTH CENTRAL NEBRASKA

CITY           SKY/WX    TMP DP  RH WIND       PRES   REMARKS
GRAND ISLAND   LGT RAIN  43  41  93 N17       30.14S
AURORA         LGT RAIN  43  42  94 N20       30.13R
HASTINGS       CLOUDY    45  40  82 N18       30.13R
KEARNEY *      CLOUDY    45  39  81 N23G30    30.15R
YORK           LGT RAIN  43  41  93 N18G25    30.12R
$$

NEZ011>018-030>034-042>045-011700-
NORTHEAST NEBRASKA

CITY           SKY/WX    TMP DP  RH WIND       PRES   REMARKS
NORFOLK        LGT RAIN  43  40  89 N14       30.15R
ALBION         CLOUDY    42  40  93 N15       30.16R
BLAIR          LGT RAIN  44  43  95 N12G17    30.07R
COLUMBUS *     CLOUDY    45  36  70 N16       30.14R
FREMONT        RAIN      44  43  97 N10G16    30.11R
TEKAMAH        LGT RAIN  44  43  96 N15       30.11R FOG
$$

NEZ050>053-065>068-078-088>093-011700-
SOUTHEAST NEBRASKA

CITY           SKY/WX    TMP DP  RH WIND       PRES   REMARKS
LINCOLN        LGT RAIN  46  43  89 N17       30.10R
OMAHA EPPLEY   LGT RAIN  46  44  93 N14       30.07R FOG
FALLS CITY     CLOUDY    50  48  93 N8        30.01R
$$

NEZ044-045-051>053-067-011700-
OMAHA AREA

CITY           SKY/WX    TMP DP  RH WIND       PRES   REMARKS
OMAHA EPPLEY   LGT RAIN  46  44  93 N14       30.07R FOG
BLAIR          LGT RAIN  44  43  95 N12G17    30.07R
FREMONT        RAIN      44  43  97 N10G16    30.11R
OFFUTT AFB     LGT RAIN  46  46  99 N8        30.06R
$$



USA.gov is the U.S. government's official web portal to all federal, state and local government web resources and services.